| time (UTC) | temp F | wind direction | speed MPH | gust MPH | rain 1hr in | rain 24hr in | rain mn in | humidity % | barometer mb |
| 20260504044904 | 40 | 162 | 0.0 | 0.0 | 0.00 | 0.00 | 0.00 | 77 | 1018.0 |
| 20260504041903 | 40 | 144 | 0.0 | 0.0 | 0.00 | 0.00 | 0.00 | 75 | 1018.4 |
| 20260504034901 | 41 | 144 | 0.0 | 0.0 | 0.00 | 0.00 | 0.00 | 77 | 1018.4 |
| 20260504031901 | 42 | 186 | 0.0 | 0.0 | 0.00 | 0.00 | 0.00 | 76 | 1018.0 |
| 20260504024900 | 43 | 174 | 0.0 | 0.0 | 0.00 | 0.00 | 0.00 | 74 | 1018.0 |
| 20260504021856 | 44 | 108 | 0.0 | 0.0 | 0.00 | 0.00 | 0.00 | 69 | 1017.7 |
| 20260504014853 | 45 | 180 | 0.0 | 0.0 | 0.00 | 0.00 | 0.00 | 66 | 1017.7 |
| 20260504011854 | 47 | 111 | 0.0 | 0.0 | 0.00 | 0.00 | 0.00 | 64 | 1017.4 |
| 20260504004850 | 51 | 162 | 0.0 | 0.0 | 0.00 | 0.00 | 0.00 | 52 | 1017.4 |
| 20260504001849 | 53 | 265 | 2.0 | 2.0 | 0.00 | 0.00 | 0.00 | 44 | 1017.4 |
| 20260503234849 | 56 | 264 | 1.0 | 1.0 | 0.00 | 0.00 | 0.00 | 43 | 1017.0 |
| 20260503231844 | 58 | 271 | 2.0 | 2.0 | 0.00 | 0.00 | 0.00 | 39 | 1016.7 |
| 20260503224842 | 58 | 331 | 2.0 | 2.0 | 0.00 | 0.00 | 0.00 | 37 | 1016.7 |
| 20260503221837 | 59 | 32 | 2.0 | 2.0 | 0.00 | 0.00 | 0.00 | 37 | 1016.7 |
| 20260503214832 | 59 | 242 | 5.0 | 5.0 | 0.00 | 0.00 | 0.00 | 36 | 1017.0 |
| 20260503211828 | 61 | 306 | 6.0 | 6.0 | 0.00 | 0.00 | 0.00 | 34 | 1017.0 |
| 20260503204828 | 60 | 324 | 2.0 | 2.0 | 0.00 | 0.00 | 0.00 | 35 | 1017.0 |
| 20260503201825 | 60 | 309 | 2.0 | 2.0 | 0.00 | 0.00 | 0.00 | 37 | 1017.4 |
| 20260503194824 | 60 | 287 | 2.0 | 2.0 | 0.00 | 0.00 | 0.00 | 39 | 1017.7 |
| 20260503191823 | 58 | 39 | 7.0 | 8.0 | 0.00 | 0.00 | 0.00 | 39 | 1018.0 |
| 20260503184819 | 58 | 335 | 5.0 | 6.0 | 0.00 | 0.00 | 0.00 | 40 | 1017.7 |
| 20260503181814 | 58 | 341 | 3.0 | 3.0 | 0.00 | 0.00 | 0.00 | 38 | 1018.4 |
| 20260503174811 | 56 | 340 | 4.0 | 5.0 | 0.00 | 0.00 | 0.00 | 40 | 1018.4 |
| 20260503171809 | 56 | 327 | 4.0 | 4.0 | 0.00 | 0.00 | 0.00 | 38 | 1018.7 |
| 20260503071717 | 38 | 348 | 3.0 | 3.0 | 0.00 | 0.00 | 0.00 | 74 | 1017.7 |
| 20260503054707 | 40 | 348 | 2.0 | 2.0 | 0.00 | 0.00 | 0.00 | 71 | 1017.7 |
| 20260503051706 | 41 | 337 | 3.0 | 3.0 | 0.00 | 0.00 | 0.00 | 72 | 1017.7 |